This is the latest recevied weather packets stored in our database for station/object G0SCV-10. If no packets are shown the sender has not sent any weather packets the latest 10 day(s).
| Time | Temp. | Humidity | Pressure | Rain* | Wind** | Luminosity | Snow |
|---|---|---|---|---|---|---|---|
| 1787600732 | 25° C | 60% | 1011 hPa | - | - | - | - |
| 1787598932 | 25.56° C | 59% | 1010.8 hPa | - | - | - | - |
| 1787598031 | 26.11° C | 59% | 1010.9 hPa | - | - | - | - |
| 1787597131 | 26.11° C | 58% | 1010.8 hPa | - | - | - | - |
| 1787596230 | 26.67° C | 57% | 1010.9 hPa | - | - | - | - |
| 1787595330 | 26.67° C | 58% | 1010.9 hPa | - | - | - | - |
| 1787594429 | 26.11° C | 58% | 1019.8 hPa | - | - | - | - |
| 1787593528 | 26.67° C | 57% | 1019.8 hPa | - | - | - | - |
| 1787592628 | 26.67° C | 57% | 1016.9 hPa | - | - | - | - |
| 1787591727 | 27.22° C | 57% | 1017.1 hPa | - | - | - | - |
| 1787590827 | 28.33° C | 55% | 1019 hPa | - | - | - | - |
| 1787589926 | 28.33° C | 55% | 1019.1 hPa | - | - | - | - |
| 1787589026 | 28.89° C | 55% | 1023 hPa | - | - | - | - |
| 1787588125 | 28.89° C | 56% | 1018.2 hPa | - | - | - | - |
| 1787587225 | 27.78° C | 57% | 1018.4 hPa | - | - | - | - |
| 1787586324 | 27.78° C | 57% | 1018.4 hPa | - | - | - | - |
| 1787585428 | 27.78° C | 57% | 1015.3 hPa | - | - | - | - |
| 1787584524 | 27.78° C | 57% | 1015.5 hPa | - | - | - | - |
| 1787583624 | 27.78° C | 57% | 1011.4 hPa | - | - | - | - |
| 1787582723 | 27.22° C | 58% | 1011.5 hPa | - | - | - | - |
| 1787581822 | 26.67° C | 59% | 1020.9 hPa | - | - | - | - |
| 1787580921 | 26.67° C | 59% | 1022.9 hPa | - | - | - | - |
| 1787580021 | 26.11° C | 59% | 1023 hPa | - | - | - | - |
| 1787579121 | 26.11° C | 60% | 1023.2 hPa | - | - | - | - |
| 1787578220 | 25.56° C | 61% | 1023.4 hPa | - | - | - | - |
* Rain since midnight (hover to see other rain measurements)
** Current wind speed in m/s (hover to see current wind gust speed)